Weather History for Bellefontaine, OH

Change the Weather History Date:

Thursday, January 24, 2013

  Actual Average (KDAY) Record (KDAY)
Temperature  
Mean Temperature 12 °F 28 °F  
Max Temperature 19 °F 35 °F 71 °F (1943)
Min Temperature 5 °F 20 °F -19 °F (1963)
Degree Days  
Heating Degree Days 53 37  
Month to date heating degree days 905  
Since 1 July heating degree days 3064  
Cooling Degree Days 0 0  
Month to date cooling degree days 0  
Year to date cooling degree days 0  
Moisture  
Dew Point 8 °F    
Average Humidity 73    
Maximum Humidity 93    
Minimum Humidity 54    
Precipitation  
Precipitation 0.00 in 0.08 in 1.72 in (1937)
Month to date precipitation 2.15  
Year to date precipitation 2.15  
Snow  
Snow 0.00 in 0.20 in 4.90 in (1941)
Month to date snowfall 6.1  
Since 1 July snowfall 11.6  
Snow Depth -    
Sea Level Pressure  
Sea Level Pressure 30.37 in    
Wind  
Wind Speed 10 mph (North)    
Max Wind Speed 22 mph    
Max Gust Speed 30 mph    
Visibility 10 miles    
Events      
T = Trace of Precipitation, MM = Missing Value Source: NWS Daily Summary

Daily Weather History Graph

Daily Weather History Graph

Search for Another Location

Airport:

Trip Planner

Search our weather history database for the weather conditions in past years. The results will help you decide how hot, cold, wet, or windy it might be!

Date:

Astronomy

Jan. 24, 2013 Rise Set
Actual Time 7:51 AM EST 5:44 PM EST
Civil Twilight 7:21 AM EST 6:13 PM EST
Nautical Twilight 6:48 AM EST 6:46 PM EST
Astronomical Twilight 6:16 AM EST 7:18 PM EST
Moon 3:45 PM EST (1/24) 5:48 AM EST (1/24)
Length of Visible Light 10h 51m
Length of Day
9h 53m
Waxing Gibbous, 94% of the Moon is Illuminated
Jan 24
Waxing Gibbous
Jan 26
Full
Feb 3
Last Quarter
Feb 10
New
Feb 17
First Quarter

Hourly Weather History & Observations

Time (EST) Temp. Windchill Dew Point Humidity Pressure Visibility Wind Dir Wind Speed Gust Speed Precip Events Conditions
12:15 AM 17.6 °F 5.7 °F 15.8 °F 93% 30.03 in 5.0 mi West 10.4 mph - 0.00 in   Overcast
12:35 AM 19.4 °F 8.6 °F 14.0 °F 80% 30.03 in 4.0 mi West 9.2 mph - 0.00 in   Mostly Cloudy
12:55 AM 19.4 °F 7.2 °F 14.0 °F 80% 30.04 in 4.0 mi West 11.5 mph 16.1 mph 0.00 in   Overcast
1:15 AM 19.4 °F 6.6 °F 15.8 °F 86% 30.05 in 3.0 mi WNW 12.7 mph - 0.00 in   Overcast
1:35 AM 19.4 °F 6.6 °F 15.8 °F 86% 30.06 in 4.0 mi WNW 12.7 mph 19.6 mph 0.00 in   Overcast
1:55 AM 19.4 °F 2.8 °F 14.0 °F 80% 30.07 in 9.0 mi NW 21.9 mph 29.9 mph 0.00 in   Mostly Cloudy
2:15 AM 19.4 °F 4.5 °F 12.2 °F 74% 30.09 in 10.0 mi NW 17.3 mph 24.2 mph 0.00 in   Overcast
2:35 AM 17.6 °F 1.7 °F 12.2 °F 79% 30.11 in 9.0 mi NW 18.4 mph 29.9 mph 0.00 in   Overcast
2:55 AM 17.6 °F 0.5 °F 10.4 °F 73% 30.13 in 10.0 mi NNW 21.9 mph 29.9 mph 0.00 in   Scattered Clouds
3:15 AM 14.0 °F -3.4 °F 8.6 °F 79% 30.15 in 10.0 mi NNW 19.6 mph 26.5 mph 0.00 in   Clear
3:35 AM 14.0 °F -1.4 °F 8.6 °F 79% 30.17 in 10.0 mi NNW 15.0 mph - 0.00 in   Clear
3:55 AM 14.0 °F -2.5 °F 8.6 °F 79% 30.19 in 10.0 mi NNW 17.3 mph 23.0 mph 0.00 in   Clear
4:15 AM 14.0 °F -3.4 °F 6.8 °F 73% 30.20 in 10.0 mi NNW 19.6 mph 25.3 mph 0.00 in   Clear
4:35 AM 12.2 °F -2.5 °F 5.0 °F 73% 30.22 in 10.0 mi NW 12.7 mph 17.3 mph 0.00 in   Clear
4:55 AM 12.2 °F -2.5 °F 5.0 °F 73% 30.23 in 10.0 mi NW 12.7 mph - 0.00 in   Clear
5:15 AM 12.2 °F -2.5 °F 5.0 °F 73% 30.25 in 10.0 mi NW 12.7 mph - 0.00 in   Clear
5:35 AM 12.2 °F -1.8 °F 5.0 °F 73% 30.26 in 10.0 mi NNW 11.5 mph - 0.00 in   Clear
5:55 AM 10.4 °F -4.1 °F 5.0 °F 79% 30.28 in 10.0 mi NNW 11.5 mph - 0.00 in   Clear
6:15 AM 10.4 °F -2.4 °F 5.0 °F 79% 30.30 in 10.0 mi NNW 9.2 mph - 0.00 in   Clear
6:35 AM 10.4 °F -3.3 °F 5.0 °F 79% 30.31 in 10.0 mi NW 10.4 mph - 0.00 in   Clear
6:55 AM 10.4 °F -0.4 °F 5.0 °F 79% 30.33 in 10.0 mi NW 6.9 mph - 0.00 in   Clear
7:15 AM 8.6 °F -2.6 °F 5.0 °F 85% 30.35 in 10.0 mi NW 6.9 mph - 0.00 in   Clear
7:35 AM 8.6 °F 0.1 °F 3.2 °F 79% 30.36 in 10.0 mi NW 4.6 mph - 0.00 in   Clear
7:55 AM 5.0 °F -4.1 °F 3.2 °F 92% 30.38 in 10.0 mi NNW 4.6 mph - 0.00 in   Clear
8:15 AM 6.8 °F -0.1 °F 3.2 °F 85% 30.39 in 10.0 mi NW 3.5 mph - 0.00 in   Mostly Cloudy
8:35 AM 8.6 °F 2.0 °F 3.2 °F 79% 30.40 in 10.0 mi NNW 3.5 mph - 0.00 in   Scattered Clouds
8:55 AM 8.6 °F 0.1 °F 5.0 °F 85% 30.41 in 10.0 mi NW 4.6 mph - 0.00 in   Clear
9:15 AM 10.4 °F 4.0 °F 5.0 °F 79% 30.41 in 10.0 mi NW 3.5 mph - 0.00 in   Clear
9:35 AM 10.4 °F 0.8 °F 5.0 °F 79% 30.43 in 10.0 mi NNW 5.8 mph - 0.00 in   Clear
9:55 AM 12.2 °F -0.2 °F 6.8 °F 79% 30.45 in 10.0 mi NNW 9.2 mph - 0.00 in   Clear
10:15 AM 12.2 °F -0.2 °F 6.8 °F 79% 30.47 in 10.0 mi NNW 9.2 mph - 0.00 in   Clear
10:35 AM 12.2 °F -0.2 °F 6.8 °F 79% 30.48 in 10.0 mi North 9.2 mph - 0.00 in   Clear
10:55 AM 14.0 °F 0.5 °F 8.6 °F 79% 30.50 in 10.0 mi North 11.5 mph - 0.00 in   Partly Cloudy
11:15 AM 14.0 °F 1.2 °F 8.6 °F 79% 30.51 in 10.0 mi North 10.4 mph - 0.00 in   Mostly Cloudy
11:35 AM 14.0 °F 1.2 °F 8.6 °F 79% 30.51 in 10.0 mi North 10.4 mph - 0.00 in   Scattered Clouds
11:55 AM 14.0 °F 1.2 °F 8.6 °F 79% 30.51 in 10.0 mi North 10.4 mph - 0.00 in   Scattered Clouds
12:15 PM 15.8 °F 6.1 °F 10.4 °F 79% 30.51 in 10.0 mi NNE 6.9 mph - 0.00 in   Scattered Clouds
12:35 PM 17.6 °F 8.2 °F 10.4 °F 73% 30.51 in 10.0 mi NE 6.9 mph - 0.00 in   Scattered Clouds
12:55 PM 17.6 °F 9.3 °F 10.4 °F 73% 30.50 in 10.0 mi North 5.8 mph - 0.00 in   Scattered Clouds
1:15 PM 17.6 °F 7.3 °F 10.4 °F 73% 30.50 in 10.0 mi North 8.1 mph - 0.00 in   Scattered Clouds
1:35 PM 17.6 °F 9.3 °F 10.4 °F 73% 30.49 in 10.0 mi NE 5.8 mph - 0.00 in   Partly Cloudy
1:55 PM 19.4 °F 11.5 °F 8.6 °F 63% 30.48 in 10.0 mi NE 5.8 mph - 0.00 in   Clear
2:15 PM 19.4 °F 11.5 °F 8.6 °F 63% 30.47 in 10.0 mi ENE 5.8 mph - 0.00 in   Clear
2:35 PM 19.4 °F 12.8 °F 6.8 °F 58% 30.48 in 10.0 mi ENE 4.6 mph - 0.00 in   Clear
2:55 PM 19.4 °F 11.5 °F 6.8 °F 58% 30.48 in 10.0 mi NE 5.8 mph - 0.00 in   Clear
3:15 PM 19.4 °F 11.5 °F 5.0 °F 54% 30.48 in 10.0 mi NE 5.8 mph - 0.00 in   Clear
3:35 PM 19.4 °F 11.5 °F 5.0 °F 54% 30.48 in 10.0 mi NE 5.8 mph - 0.00 in   Clear
3:55 PM 19.4 °F 10.4 °F 6.8 °F 58% 30.47 in 10.0 mi NE 6.9 mph - 0.00 in   Clear
4:15 PM 19.4 °F 12.8 °F 6.8 °F 58% 30.47 in 10.0 mi ENE 4.6 mph - 0.00 in   Clear
4:35 PM 19.4 °F 11.5 °F 5.0 °F 54% 30.47 in 10.0 mi NNE 5.8 mph - 0.00 in   Clear
4:55 PM 19.4 °F 11.5 °F 5.0 °F 54% 30.48 in 10.0 mi NE 5.8 mph - 0.00 in   Clear
5:15 PM 17.6 °F 10.7 °F 6.8 °F 63% 30.48 in 10.0 mi NE 4.6 mph - 0.00 in   Clear
5:35 PM 17.6 °F 10.7 °F 6.8 °F 63% 30.48 in 10.0 mi NE 4.6 mph - 0.00 in   Clear
5:55 PM 17.6 °F 12.3 °F 6.8 °F 63% 30.48 in 10.0 mi NE 3.5 mph - 0.00 in   Clear
6:15 PM 15.8 °F 10.2 °F 6.8 °F 68% 30.48 in 10.0 mi ENE 3.5 mph - 0.00 in   Clear
6:35 PM 17.6 °F 12.3 °F 6.8 °F 63% 30.48 in 10.0 mi East 3.5 mph - 0.00 in   Clear
6:55 PM 15.8 °F - 6.8 °F 68% 30.48 in 10.0 mi Calm Calm - 0.00 in   Clear
7:15 PM 17.6 °F - 6.8 °F 63% 30.49 in 10.0 mi Calm Calm - 0.00 in   Clear
7:35 PM 15.8 °F - 6.8 °F 68% 30.48 in 10.0 mi Calm Calm - 0.00 in   Clear
7:55 PM 15.8 °F 10.2 °F 6.8 °F 68% 30.48 in 10.0 mi East 3.5 mph - 0.00 in   Clear
8:15 PM 14.0 °F 8.2 °F 8.6 °F 79% 30.48 in 10.0 mi East 3.5 mph - 0.00 in   Clear
8:35 PM 15.8 °F 10.2 °F 8.6 °F 73% 30.47 in 10.0 mi East 3.5 mph - 0.00 in   Clear
8:55 PM 15.8 °F - 8.6 °F 73% 30.46 in 10.0 mi Calm Calm - 0.00 in   Clear
9:15 PM 17.6 °F - 8.6 °F 68% 30.46 in 10.0 mi Calm Calm - 0.00 in   Clear
9:35 PM 17.6 °F 10.7 °F 8.6 °F 68% 30.44 in 10.0 mi ESE 4.6 mph - 0.00 in   Clear
9:55 PM 17.6 °F 10.7 °F 8.6 °F 68% 30.44 in 10.0 mi SE 4.6 mph - 0.00 in   Clear
10:15 PM 17.6 °F 10.7 °F 8.6 °F 68% 30.44 in 10.0 mi SE 4.6 mph - 0.00 in   Clear
10:35 PM 17.6 °F 9.3 °F 8.6 °F 68% 30.43 in 10.0 mi SE 5.8 mph - 0.00 in   Clear
10:55 PM 17.6 °F 10.7 °F 8.6 °F 68% 30.42 in 10.0 mi East 4.6 mph - 0.00 in   Clear
11:15 PM 17.6 °F 9.3 °F 8.6 °F 68% 30.43 in 10.0 mi ESE 5.8 mph - 0.00 in   Clear
11:35 PM 17.6 °F 9.3 °F 8.6 °F 68% 30.41 in 10.0 mi ESE 5.8 mph - 0.00 in   Clear
11:55 PM 17.6 °F 9.3 °F 8.6 °F 68% 30.41 in 10.0 mi ESE 5.8 mph - 0.00 in   Clear